Cut Bank, MT

8:46 AM MST on November 21, 2019 (GMT -0700)
Cut Bank Municipal

Weather History for KCTB - September, 2019

Change the Weather History Date:

Friday, September 20, 2019

  Actual Average Record
Temperature  
Mean Temperature 52 °F 52 °F  
Max Temperature 64 °F 66 °F 86 °F (1922)
Min Temperature 38 °F 38 °F 17 °F (1934)
Degree Days  
Heating Degree Days 14 13  
Month to date heating degree days 151 197  
Since 1 July heating degree days 324 391  
Cooling Degree Days 0 0  
Month to date cooling degree days 2 6  
Year to date cooling degree days 106 159  
Growing Degree Days 2 (Base 50)    
Moisture  
Dew Point 38 °F    
Average Humidity 62    
Maximum Humidity 86    
Minimum Humidity 34    
Precipitation  
Precipitation 0.00 in 0.04 in 1.00 in (1968)
Month to date precipitation 0.99 0.88  
Year to date precipitation 9.82 9.54  
Snow  
Snow - - - ()
Snow Depth 0.00 in    
Sea Level Pressure  
Sea Level Pressure 29.89 in    
Wind  
Wind Speed 8 mph ()    
Max Wind Speed 20 mph    
Max Gust Speed 25 mph    
Visibility 10.0 miles    
Events      
T = Trace of Precipitation, MM = Missing Value Source: Averaged Metar Reports

Daily Weather History Graph

Daily Weather History Graph

Search for Another Location

Airport or City:

Astronomy

Sep. 20, 2019 Rise Set
Actual Time 7:13 AM MDT 7:31 PM MDT
Civil Twilight 6:41 AM MDT 8:03 PM MDT
Nautical Twilight 6:04 AM MDT 8:40 PM MDT
Astronomical Twilight 5:25 AM MDT 9:18 PM MDT
Moon 10:54 PM MDT (9/20) 1:50 PM MDT (9/20)
Length of Visible Light 13h 21m
Length of Day
12h 18m
Waning Gibbous, 64% of the Moon is Illuminated
Sep 20
Waning Gibbous
Sep 21
Last Quarter
Sep 28
New
Oct 5
First Quarter
Oct 13
Full

Hourly Weather History & Observations

Time (MDT) Temp. Windchill Dew Point Humidity Pressure Visibility Wind Dir Wind Speed Gust Speed Precip Events Conditions
12:56 AM 45.0 °F 40.1 °F 37.0 °F 74% 29.86 in 10.0 mi West 9.2 mph - N/A   Clear
1:56 AM 44.1 °F 39.0 °F 37.0 °F 76% 29.87 in 10.0 mi WSW 9.2 mph - N/A   Clear
2:56 AM 44.1 °F 39.0 °F 37.0 °F 76% 29.87 in 10.0 mi SW 9.2 mph - N/A   Clear
3:56 AM 44.1 °F 39.5 °F 37.0 °F 76% 29.86 in 10.0 mi WSW 8.1 mph - N/A   Clear
4:56 AM 44.1 °F 40.1 °F 36.0 °F 73% 29.85 in 10.0 mi West 6.9 mph - N/A   Clear
5:56 AM 42.1 °F 40.2 °F 36.0 °F 79% 29.87 in 10.0 mi West 3.5 mph - N/A   Clear
6:56 AM 41.0 °F 35.8 °F 36.0 °F 82% 29.88 in 10.0 mi WNW 8.1 mph - N/A   Clear
7:56 AM 39.9 °F 35.8 °F 36.0 °F 86% 29.89 in 10.0 mi North 5.8 mph - N/A   Clear
8:56 AM 46.9 °F - 37.9 °F 71% 29.90 in 10.0 mi WNW 3.5 mph - N/A   Clear
9:56 AM 55.0 °F - 37.9 °F 53% 29.88 in 10.0 mi WNW 9.2 mph - N/A   Clear
10:56 AM 59.0 °F - 37.0 °F 44% 29.89 in 10.0 mi NNW 13.8 mph - N/A   Clear
11:56 AM 61.0 °F - 36.0 °F 39% 29.88 in 10.0 mi North 13.8 mph - N/A   Partly Cloudy
12:56 PM 61.0 °F - 35.1 °F 38% 29.87 in 10.0 mi NNW 9.2 mph - N/A   Scattered Clouds
1:56 PM 62.1 °F - 36.0 °F 38% 29.87 in 10.0 mi North 8.1 mph - N/A   Mostly Cloudy
2:56 PM 64.0 °F - 35.1 °F 34% 29.85 in 10.0 mi NW 9.2 mph - N/A   Scattered Clouds
3:56 PM 63.0 °F - 36.0 °F 37% 29.86 in 10.0 mi NNW 15.0 mph - N/A   Overcast
4:56 PM 61.0 °F - 37.0 °F 41% 29.88 in 10.0 mi NW 15.0 mph - N/A   Overcast
5:56 PM 59.0 °F - 37.9 °F 46% 29.91 in 10.0 mi North 18.4 mph - N/A   Overcast
6:56 PM 57.0 °F - 42.1 °F 57% 29.93 in 10.0 mi North 10.4 mph - N/A   Overcast
7:56 PM 55.0 °F - 43.0 °F 64% 29.95 in 10.0 mi North 10.4 mph - N/A   Overcast
8:56 PM 53.1 °F - 44.1 °F 71% 29.96 in 10.0 mi NNW 6.9 mph - N/A   Overcast
9:56 PM 53.1 °F - 44.1 °F 71% 29.95 in 10.0 mi NNW 10.4 mph - N/A   Overcast
10:56 PM 51.1 °F - 44.1 °F 77% 29.95 in 10.0 mi NW 8.1 mph - N/A   Overcast
11:56 PM 51.1 °F - 44.1 °F 77% 29.96 in 10.0 mi NNW 15.0 mph - N/A   Overcast